www.pogodaiklimat.ru

Погода и климат >> Архив погоды >> Австралия >> Новый Южный Уэльс >> Дениликин


ПОГОДА в Дениликине

  • Прогноз погоды в Дениликине
  • Монитор погоды в Дениликине

АРХИВ ПОГОДЫ в Дениликине

Время (UTC), дата Ветер
(напр.,м/с)
 
Видим.   Явления Облачность Т
(С)
Тd
(С)
f
(%)
Тe
(С)
Тes
(С)
Комфортность P
(гПа)
Po
(гПа)
Тmin
(С)
Tmax
(С)
R
(мм)
R24
(мм)
S
(см)
10 15.01 Ю 4 н/о н/о +37.0 -2.7 8 +33 +33 жарко 1006.9 996.1
11 15.01 СВ 3 н/о н/о +33.5 +2.4 14 +30 +30 жарко 1007.5 996.7
14 15.01 Ю 4 н/о н/о +29.2 +6.0 23 +28 +28 жарко 1007.8 997.0
13 15.01 В 4 н/о н/о +31.4 +5.8 20 +30 +30 жарко 1008.3 997.5 +46.0
16 15.01 Ю 2 н/о н/о +25.4 +5.1 27 +25 +25 комфорт 1007.2 996.4
17 15.01 СВ 3 н/о н/о +26.0 +6.1 28 +26 +26 жарко 1006.5 995.7
20 15.01 ЮВ 3 н/о н/о +24.8 +7.0 32 +25 +25 комфорт 1007.7 996.9
19 15.01 Ю 4 н/о н/о +23.5 +5.4 31 +23 +23 комфорт 1007.2 996.4
22 15.01 В 4 н/о н/о +33.6 +8.3 21 +32 +32 жарко 1008.2 997.4
23 15.01 СВ 4 н/о н/о +36.7 +6.8 16 +34 +34 очень
жарко
1008.0 997.2
02 16.01 С 3 н/о н/о +44.1 -1.5 6 +40 +40 очень
жарко
1006.9 996.1
01 16.01 СВ 4 н/о н/о +42.1 +2.7 9 +39 +39 очень
жарко
1007.4 996.6 +23.2
04 16.01 СВ 3 н/о н/о +45.1 -6.2 4 +41 +41 опасность
перегрева
1005.4 994.6
05 16.01 СЗ 5 н/о н/о +45.5 -5.9 4 +41 +41 опасность
перегрева
1004.8 994.0
08 16.01 Ю 12 н/о н/о +39.8 +1.0 9 +36 +36 очень
жарко
1005.1 994.3
07 16.01 Ю 7 н/о н/о +42.7 -2.4 6 +39 +39 очень
жарко
1004.4 993.6
10 16.01 Ю 8 н/о н/о +32.4 +9.9 25 +32 +32 жарко 1006.5 995.7
11 16.01 Ю 6 н/о н/о +31.1 +9.3 26 +30 +30 жарко 1007.5 996.7
14 16.01 ЮВ 4 н/о н/о +30.3 +8.1 25 +29 +29 жарко 1007.2 996.4
13 16.01 Ю 5 н/о н/о +30.6 +7.7 24 +30 +30 жарко 1007.6 996.8 +46.5
16 16.01 З 3 н/о н/о +28.7 +8.4 28 +28 +28 жарко 1007.2 996.4
17 16.01 Ю 1 н/о н/о +26.8 +7.8 30 +27 +27 жарко 1006.7 995.9
20 16.01 ЮВ 4 н/о н/о +28.7 +10.4 32 +29 +29 жарко 1007.2 996.4
19 16.01 Ю 4 н/о н/о +27.8 +9.6 32 +28 +28 жарко 1007.0 996.2
22 16.01 В 6 н/о н/о +33.8 +9.8 23 +33 +33 жарко 1007.5 996.7
23 16.01 В 5 н/о н/о +36.6 +10.0 20 +35 +35 очень
жарко
1007.7 996.9
02 17.01 Ю 9 н/о н/о +38.8 +8.5 16 +37 +37 очень
жарко
1007.6 996.8
01 17.01 Ю 9 н/о н/о +38.8 +8.5 16 +37 +37 очень
жарко
1007.7 996.9 +26.5
04 17.01 Ю 7 н/о н/о +39.8 +6.2 13 +37 +37 очень
жарко
1006.7 995.9
05 17.01 ЮВ 5 н/о н/о +39.5 +7.1 14 +37 +37 очень
жарко
1006.0 995.2
08 17.01 Ю 7 н/о н/о +38.5 +7.3 15 +36 +36 очень
жарко
1005.6 994.8
07 17.01 Ю 7 н/о н/о +39.4 +8.0 15 +37 +37 очень
жарко
1005.4 994.6
10 17.01 Ю 5 н/о н/о +34.7 +7.7 19 +33 +33 жарко 1006.6 995.8
11 17.01 ЮВ 5 н/о н/о +33.5 +8.9 22 +32 +32 жарко 1007.0 996.2
14 17.01 Ю 6 н/о н/о +30.6 +9.5 27 +30 +30 жарко 1006.7 995.9
13 17.01 Ю 4 н/о н/о +30.4 +9.8 28 +30 +30 жарко 1006.9 996.1 +41.7
16 17.01 Ю 5 н/о н/о +28.5 +10.2 32 +29 +29 жарко 1006.5 995.7
17 17.01 Ю 6 н/о н/о +28.9 +10.6 32 +29 +29 жарко 1005.5 994.7
20 17.01 ЮВ 6 н/о н/о +28.5 +12.0 36 +30 +30 жарко 1006.6 995.8
19 17.01 Ю 6 н/о н/о +28.5 +11.6 35 +29 +29 жарко 1005.6 994.8
22 17.01 ЮВ 7 н/о н/о +29.7 +12.2 34 +31 +31 жарко 1006.8 996.0
23 17.01 В 10 н/о н/о +31.6 +12.4 31 +32 +32 жарко 1005.3 994.5
02 18.01 ЮЗ 8 н/о н/о +34.5 +13.3 28 +35 +35 очень
жарко
1006.3 995.5
01 18.01 В 6 н/о н/о +37.1 +13.2 24 +37 +37 очень
жарко
1006.0 995.2 +27.8
04 18.01 ЮЗ 7 н/о н/о +39.7 +12.5 20 +39 +39 очень
жарко
1006.5 995.7
05 18.01 Ю 9 н/о н/о +39.3 +10.6 18 +38 +38 очень
жарко
1006.4 995.6
08 18.01 ЮЗ 13 н/о н/о +34.0 +10.6 24 +33 +33 жарко 1008.8 998.0
07 18.01 ЮЗ 14 н/о н/о +34.6 +9.8 22 +34 +34 очень
жарко
1007.7 996.9
10 18.01 ЮЗ 6 н/о н/о +30.7 +11.6 31 +31 +31 жарко 1010.6 999.8
11 18.01 ЮЗ 8 н/о н/о +29.6 +10.7 31 +30 +30 жарко 1011.3 1000.4
14 18.01 ЮЗ 9 н/о н/о +26.6 +15.3 50 +29 +29 жарко 1013.3 1002.4
13 18.01 ЮЗ 6 н/о н/о +27.7 +12.1 38 +29 +29 жарко 1012.8 1001.9 +40.7
16 18.01 Ю 8 н/о н/о +21.7 +9.3 45 +23 +23 комфорт 1014.6 1003.7
17 18.01 Ю 7 н/о н/о +20.4 +9.0 48 +21 +21 комфорт 1014.3 1003.4
20 18.01 ЮЗ 7 н/о н/о +17.9 +9.5 58 +17 +17 1016.7 1005.8
19 18.01 ЮЗ 8 н/о н/о +17.8 +9.7 59 +17 +17 1016.2 1005.3
22 18.01 ЮЗ 7 н/о н/о +20.6 +9.5 49 +22 +22 комфорт 1018.3 1007.4
23 18.01 Ю 6 н/о н/о +23.2 +8.1 38 +24 +24 комфорт 1018.4 1007.5
02 19.01 ЮЗ 7 н/о н/о +28.3 +3.9 21 +27 +27 жарко 1017.5 1006.6
01 19.01 ЮЗ 8 н/о н/о +27.0 +5.9 26 +26 +26 жарко 1018.1 1007.2 +17.7
04 19.01 ЮЗ 8 н/о н/о +31.4 -1.4 12 +28 +28 жарко 1016.6 1005.7
05 19.01 ЮЗ 7 н/о н/о +31.9 -4.9 9 +28 +28 жарко 1016.1 1005.2
08 19.01 Ю 7 н/о н/о +31.5 -2.5 11 +28 +28 жарко 1015.0 1004.1
07 19.01 Ю 6 н/о н/о +32.4 -1.8 11 +29 +29 жарко 1014.9 1004.0
10 19.01 Ю 6 н/о н/о +26.9 +2.1 20 +25 +25 комфорт 1016.0 1005.1
11 19.01 Ю 6 н/о н/о +24.8 +0.3 20 +23 +23 комфорт 1017.0 1006.1
14 19.01 ЮЗ 6 н/о н/о +19.4 +6.8 44 +20 +20 1017.3 1006.4
13 19.01 ЮЗ 6 н/о н/о +20.9 +5.3 36 +22 +22 комфорт 1017.6 1006.7 +33.8
16 19.01 ЮЗ 6 н/о н/о +17.5 +8.1 54 +17 +17 1016.8 1005.9
17 19.01 ЮЗ 7 н/о н/о +17.0 +8.2 56 +16 +16 1016.9 1006.0
20 19.01 ЮЗ 4 н/о н/о +16.5 +8.0 57 +16 +16 1016.9 1006.0
19 19.01 ЮЗ 5 н/о н/о +16.3 +7.5 56 +16 +16 1016.7 1005.8
22 19.01 Ю 4 н/о н/о +20.2 +6.5 41 +21 +21 комфорт 1017.9 1007.0
23 19.01 ЮВ 4 н/о н/о +23.3 +7.0 35 +24 +24 комфорт 1018.0 1007.1
02 20.01 ЮЗ 4 н/о н/о +31.3 +7.1 22 +30 +30 жарко 1016.7 1005.8
01 20.01 В 3 н/о н/о +29.0 +7.6 26 +28 +28 жарко 1017.3 1006.4 +16.0
04 20.01 ЮВ 5 н/о н/о +35.0 +0.2 11 +31 +31 жарко 1015.0 1004.1
05 20.01 Ю 5 н/о н/о +36.1 +2.2 12 +33 +33 жарко 1014.2 1003.3
08 20.01 Ю 5 н/о н/о +35.8 +3.1 13 +33 +33 жарко 1012.7 1001.8
07 20.01 ЮВ 4 н/о н/о +36.2 +2.3 12 +33 +33 жарко 1012.8 1001.9
10 20.01 Ю 7 н/о н/о +31.6 +9.8 26 +31 +31 жарко 1013.5 1002.6
11 20.01 Ю 6 н/о н/о +29.6 +10.2 30 +30 +30 жарко 1014.1 1003.2
14 20.01 Ю 4 н/о н/о +23.3 +11.4 47 +26 +26 жарко 1014.1 1003.2
13 20.01 Ю 6 н/о н/о +25.2 +11.4 42 +27 +27 жарко 1014.2 1003.3 +37.2
16 20.01 ЮЗ 4 н/о н/о +20.4 +12.1 59 +23 +23 комфорт 1014.0 1003.1
17 20.01 Ю 3 н/о н/о +19.3 +12.1 63 +21 +21 комфорт 1013.9 1003.0
20 20.01 Ю 3 н/о н/о +19.2 +13.2 68 +21 +21 комфорт 1013.7 1002.8
19 20.01 ЮЗ 3 н/о н/о +17.3 +11.1 67 +17 +17 1013.8 1002.9
22 20.01 В 5 н/о н/о +26.4 +13.5 45 +28 +28 жарко 1014.2 1003.3
23 20.01 СВ 2 н/о н/о +29.1 +12.1 35 +30 +30 жарко 1014.3 1003.4
02 21.01 З 3 н/о н/о +36.1 +4.4 14 +33 +33 жарко 1012.7 1001.8
01 21.01 Ю 2 н/о н/о +34.3 +10.8 24 +34 +34 очень
жарко
1013.6 1002.7 +17.4
04 21.01 СЗ 3 н/о н/о +38.7 +1.6 10 +35 +35 очень
жарко
1010.9 1000.0
05 21.01 ЮЗ 4 н/о н/о +39.0 +0.4 9 +35 +35 очень
жарко
1010.0 999.2
08 21.01 СЗ 2 н/о н/о +38.7 -1.4 8 +35 +35 очень
жарко
1009.2 998.4
07 21.01 ЮЗ 5 н/о н/о +38.7 -1.4 8 +35 +35 очень
жарко
1009.2 998.4
10 21.01 З 3 н/о н/о +33.9 +1.6 13 +31 +31 жарко 1010.2 999.4
11 21.01 З 4 н/о н/о +30.2 +3.3 18 +28 +28 жарко 1011.0 1000.1
14 21.01 З 2 н/о н/о +26.0 +5.0 26 +25 +25 комфорт 1010.5 999.7
13 21.01 Ю 1 н/о н/о +27.7 +4.1 22 +26 +26 жарко 1011.0 1000.1 +40.1
16 21.01 ЮВ 2 н/о н/о +24.4 +6.6 32 +24 +24 комфорт 1010.2 999.4
17 21.01 Ю 2 н/о н/о +23.4 +9.8 42 +25 +25 комфорт 1010.1 999.3
20 21.01 Ю 3 н/о н/о +21.5 +14.4 64 +24 +24 комфорт 1010.9 1000.0
19 21.01 Ю 3 н/о н/о +21.0 +12.7 59 +24 +24 комфорт 1010.4 999.6
22 21.01 В 2 н/о н/о +28.2 +14.4 43 +30 +30 жарко 1011.3 1000.4
23 21.01 СВ 2 н/о н/о +32.3 +13.5 32 +33 +33 жарко 1011.3 1000.4
02 22.01 З 5 н/о н/о +39.6 +4.9 12 +37 +37 очень
жарко
1009.8 999.0
01 22.01 З 2 н/о н/о +38.4 +6.2 14 +36 +36 очень
жарко
1010.5 999.7 +20.8
04 22.01 З 5 н/о н/о +40.9 +0.2 8 +37 +37 очень
жарко
1008.1 997.3
05 22.01 З 4 н/о н/о +41.4 +0.5 8 +38 +38 очень
жарко
1007.5 996.7
08 22.01 ЮЗ 7 н/о н/о +40.7 +1.7 9 +37 +37 очень
жарко
1006.7 995.9
07 22.01 З 5 н/о н/о +41.6 +2.3 9 +38 +38 очень
жарко
1006.7 995.9
10 22.01 ЮЗ 4 н/о н/о +33.9 +2.7 14 +31 +31 жарко 1007.7 996.9

 

Местоположение метеостанции Дениликин (Новый Южный Уэльс, Австралия): широта -35.57 долгота 144.95 высота над уровнем моря 95 м.

В архиве по умолчанию представлена погода в Дениликине за последнюю неделю. Архивные данные за месяц целиком и за предыдущие месяцы, начиная с января 2011 года, Вы можете получить, выбрав интересующий диапазон дат из раскрывающегося списка и нажав кнопку "Ввод!".


*Определитесь, кто Вы:
робот инопланетянин человек

Внимание! Время в таблицах - всемирное. Для получения местного времени необходимо прибавить поправку, которая равна 10 ч.

Смотрите также архив погоды в соседних городах и на ближайших метеорологических станциях:

Погода в Кайабраме (Виктория, Австралия) (85 км)
Погода в Татуре (Виктория, Австралия) (100 км)
Погода в Шеппартоне (Виктория, Австралия) (104 км)
Погода в Ярравонге (Виктория, Австралия) (110 км)
Погода в Хее (Новый Южный Уэльс, Австралия) (116 км)
Погода в Суон-Хилле (Виктория, Австралия) (130 км)
Погода в Бендиго (Виктория, Австралия) (141 км)
Погода в Мангалоре (Виктория, Австралия) (147 км)
Погода в Рутерглене (Виктория, Австралия) (152 км)
Погода в Вангаратте (Виктория, Австралия) (154 км)

Пояснения к столбцам:

Ветер - указаны скорость ветра в м/с - средняя за 10 мин, порывы в срок и между сроками (в фигурных скобках) и направление, откуда дует ветер: С - северный, СВ - северо-восточный, В - восточный, ЮВ - юго-восточный, Ю - южный, ЮЗ - юго-западный, З - западный, СЗ - северо-западный.
Видимость - горизонтальная дальность видимости в метрах или километрах. При видимости от 1 до 10 км при отсутствии осадков обычно наблюдается дымка, при ухудшении видимости до 1 км и менее - туман. В сухую погоду видимость может ухудшаться дымом, пылью или мглою.
Явления - указаны атмосферные явления, наблюдавшиеся в срок или в последний час перед сроком; фигурными скобками обозначены явления, наблюдавшиеся между сроками (за 1-3 часа до срока); квадратными скобками обозначены град или гололедные отложения с указанием их диаметра в мм.
Облачность - указаны через наклонную черту общая и нижняя облачность в баллах и высота нижней границы облаков в метрах; квадратными скобками обозначены формы облаков: Ci - перистые, Cs - перисто-слоистые, Cc - перисто-кучевые, Ac - высококучевые, As - высокослоистые, Sc - слоисто-кучевые, Ns - слоисто-дождевые, Cu - кучевые, Cb - кучево-дождевые. Подробнее классификацию облаков см. в Атласе облаков (PDF).
T - Температура воздуха - температура, измеренная на высоте 2 м над землей.
Td - Температура точки росы - температура, при понижении до которой содержащийся в воздухе водяной пар достигнет насыщения.
f - Относительная влажность воздуха - влажноcть воздуха, измеренная на высоте 2 м над землей.
Te - Эффективная температура - температура, которую ощущает одетый по сезону человек в тени. Характеристика душности погоды. При расчете учитывается влияние влажности воздуха и скорости ветра на теплоощущения человека.
Tes - Эффективная температура на солнце - температура, которую ощущает человек, с поправкой на солнечный нагрев. Характеристика знойности погоды. Зависит от высоты солнца над горизонтом, облачности и скорости ветра. Ночью, в пасмурную погоду, а также при ветре 12 м/с и более поправка равна нулю.
P - Атмосферное давление - приведенное к уровню моря атмосферное давление.
Po - Атмосферное давление - измеренное на уровне метеостанции атмосферное давление.
Tmin - Минимальная температура - минимум температуры воздуха на высоте 2 м над землей.
Tmax - Максимальная температура - максимум температуры воздуха на высоте 2 м над землей.
R - Количество осадков - Количество выпавших осадков за период времени, мм. При наведении курсора мыши на число - период времени, за который выпало указанное количество осадков.
R24 - Количество осадков - Количество выпавших осадков за 24 часа, мм.
S - Снежный покров - Высота снежного покрова, см. При наведении курсора мыши на число - состояние снежного покрова и степень покрытия местности в баллах.